The 32 - 71 metre wide asteroid 2012 DR32 will make a close pass (4.7 lunar distances, 0.0120 AU), travelling at 16.55 km/second, in the constellation Pavo, to the Earth-Moon system on the 2nd March, 2017 @ 19:30 UT ±00:01.
Orbital elements:
2012 DR32 Earth MOID = 0.0057 AU
Epoch 2012 Mar. 14.0 TT = JDT 2456000.5 MPC
M 294.41051 (2000.0) P Q
n 1.18336044 Peri. 312.07301 +0.40391603 +0.90975953
a 0.8852339 Node 341.07814 -0.72752010 +0.25593029
e 0.4852115 Incl. 17.19441 -0.55458664 +0.32685972
P 0.83 H 24.7 G 0.15 U 8
The 31 - 70 metre wide asteroid 2012 DR32 will make a close pass (8.7 lunar distances, 0.0223 AU), travelling at 16.24 km/second, to the Earth-Moon system on the 2nd March, 2012 @ 16:47 UT ±00:01.